Greenwood, SC

1:54 AM EST on February 14, 2016 (GMT -0500)
Greenwood County

Weather History for KGRD - November, 2012

Change the Weather History Date:

Thursday, November 8, 2012

  Actual Average (KAND) Record (KAND)
Temperature  
Mean Temperature 50 °F -  
Max Temperature 64 °F 64 °F 79 °F (1980)
Min Temperature 36 °F 41 °F 26 °F (1967)
Degree Days  
Heating Degree Days 15    
Moisture  
Dew Point 35 °F    
Average Humidity 70    
Maximum Humidity 100    
Minimum Humidity 25    
Precipitation  
Precipitation 0.00 in - - ()
Sea Level Pressure  
Sea Level Pressure 30.11 in    
Wind  
Wind Speed 2 mph (WNW)    
Max Wind Speed 8 mph    
Max Gust Speed -    
Visibility 9 miles    
Events      
Averages and records for this station are not official NWS values.
T = Trace of Precipitation, MM = Missing Value Source: NWS Daily Summary

Daily Weather History Graph

Daily Weather History Graph

Search for Another Location

Airport or City:

Trip Planner

Search our weather history database for the weather conditions in past years. The results will help you decide how hot, cold, wet, or windy it might be!

Date:

Astronomy

Nov. 08, 2012 Rise Set
Actual Time 6:55 AM EST 5:28 PM EST
Civil Twilight 6:29 AM EST 5:55 PM EST
Nautical Twilight 5:59 AM EST 6:25 PM EST
Astronomical Twilight 5:29 AM EST 6:54 PM EST
Moon 1:04 AM EST (11/8) 1:55 PM EST (11/8)
Length of Visible Light 11h 26m
Length of Day
10h 33m
Waning Crescent, 33% of the Moon is Illuminated
Nov 8
Waning Crescent
Nov 13
New
Nov 20
First Quarter
Nov 28
Full
Dec 6
Last Quarter

Hourly Weather History & Observations

Time (EST) Temp. Windchill Dew Point Humidity Pressure Visibility Wind Dir Wind Speed Gust Speed Precip Events Conditions
12:56 AM 37.9 °F - 37.9 °F 100% 30.02 in 3.0 mi Calm Calm - N/A   Clear
1:08 AM 37.4 °F - 35.6 °F 93% 30.02 in 2.0 mi Calm Calm - N/A   Clear
2:56 AM 37.9 °F 34.4 °F 37.0 °F 97% 30.04 in 3.0 mi West 4.6 mph - N/A   Clear
3:56 AM 37.0 °F 34.5 °F 36.0 °F 96% 30.04 in 5.0 mi West 3.5 mph - N/A   Clear
4:56 AM 37.9 °F 34.4 °F 36.0 °F 93% 30.06 in 10.0 mi West 4.6 mph - N/A   Clear
5:56 AM 37.9 °F 34.4 °F 36.0 °F 93% 30.08 in 10.0 mi West 4.6 mph - N/A   Clear
6:56 AM 36.0 °F 32.1 °F 35.1 °F 97% 30.10 in 10.0 mi WNW 4.6 mph - N/A   Clear
7:56 AM 39.9 °F - 37.0 °F 89% 30.13 in 10.0 mi Calm Calm - N/A   Clear
8:56 AM 46.0 °F - 39.9 °F 79% 30.14 in 10.0 mi Calm Calm - N/A   Clear
9:56 AM 53.1 °F - 41.0 °F 64% 30.16 in 10.0 mi NNW 3.5 mph - N/A   Clear
10:56 AM 57.9 °F - 35.1 °F 42% 30.16 in 10.0 mi Calm Calm - N/A   Clear
11:56 AM 60.1 °F - 36.0 °F 41% 30.14 in 10.0 mi Variable 6.9 mph - N/A   Clear
12:56 PM 61.0 °F - 30.9 °F 32% 30.12 in 10.0 mi WSW 8.1 mph - 0.00 in   Clear
1:56 PM 63.0 °F - 28.9 °F 28% 30.10 in 10.0 mi WNW 5.8 mph - 0.00 in   Clear
3:56 PM 64.0 °F - 27.0 °F 25% 30.10 in 10.0 mi NW 5.8 mph - N/A   Clear
4:56 PM 62.1 °F - 28.0 °F 28% 30.11 in 10.0 mi WNW 3.5 mph - N/A   Clear
5:56 PM 52.0 °F - 30.9 °F 45% 30.12 in 10.0 mi Calm Calm - N/A   Clear
6:56 PM 48.0 °F - 33.1 °F 56% 30.15 in 10.0 mi Calm Calm - N/A   Clear
7:56 PM 43.0 °F - 35.1 °F 74% 30.15 in 10.0 mi Calm Calm - N/A   Clear
8:56 PM 41.0 °F - 34.0 °F 76% 30.16 in 10.0 mi Calm Calm - N/A   Clear
9:56 PM 39.0 °F - 35.1 °F 86% 30.17 in 10.0 mi Calm Calm - N/A   Clear
10:56 PM 37.0 °F - 34.0 °F 89% 30.17 in 10.0 mi Calm Calm - N/A   Clear
11:56 PM 37.0 °F - 34.0 °F 89% 30.17 in 10.0 mi Calm Calm - N/A   Clear